Dewpoint
-24 -23 -23 -23 -23 -23 -24 -24 -24 -25 -25 -28 -29 -30 -31 -32 -32 -31 -26 -19 -12 -3 2 4 5 6 6
-22 -22 -22 -22 -22 -22 -22 -22 -22 -23 -24 -24 -25 -25 -25 -26 -30 -32 -32 -30 -25 -19 -7 1 4 5 6
-20 -20 -20 -19 -19 -19 -20 -20 -20 -21 -21 -22 -22 -22 -24 -25 -25 -26 -28 -30 -29 -27 -21 -10 1 4 5
-18 -18 -17 -17 -17 -17 -17 -17 -17 -17 -18 -19 -19 -20 -20 -22 -22 -23 -24 -25 -27 -30 -26 -20 -9 1 4
-17 -17 -16 -16 -15 -15 -15 -15 -15 -15 -16 -16 -17 -18 -19 -19 -20 -21 -22 -23 -26 -28 -28 -21 -16 -10 1
-17 -17 -16 -16 -15 -15 -15 -14 -14 -15 -15 -15 -15 -16 -17 -17 -18 -19 -21 -24 -23 -23 -25 -29 -26 -13 -7
-17 -17 -17 -17 -16 -16 -16 -16 -16 -15 -15 -14 -14 -14 -15 -15 -17 -18 -19 -21 -20 -21 -25 -27 -29 -29 -24
-18 -18 -18 -17 -17 -17 -17 -16 -16 -15 -15 -14 -13 -13 -14 -15 -16 -17 -19 -21 -23 -26 -27 -27 -28 -29 -27
-19 -19 -18 -18 -18 -17 -17 -17 -16 -16 -15 -14 -14 -13 -13 -14 -15 -17 -18 -19 -21 -23 -25 -30 -30 -30 -28
-19 -19 -18 -17 -18 -18 -17 -16 -15 -15 -14 -14 -14 -14 -15 -13 -15 -16 -17 -18 -22 -26 -29 -31 -25 -18 -20
-18 -18 -18 -18 -18 -18 -18 -16 -15 -15 -13 -12 -13 -14 -15 -17 -15 -17 -19 -20 -22 -25 -30 -30 -23 -35 -29
-16 -16 -17 -17 -18 -18 -14 -12 -12 -12 -11 -12 -14 -15 -15 -18 -20 -20 -23 -26 -28 -28 -34 -35 -37 -32 -18
-14 -16 -17 -14 -12 -12 -12 -12 -12 -11 -12 -13 -14 -14 -15 -16 -20 -26 -29 -26 -32 -35 -37 -33 -29 -25 -17
-15 -13 -12 -12 -12 -12 -12 -12 -12 -13 -14 -15 -16 -16 -16 -18 -21 -29 -32 -35 -38 -37 -32 -24 -18 -23 -11
-13 -13 -13 -13 -13 -13 -14 -14 -14 -14 -15 -16 -15 -15 -16 -17 -25 -34 -38 -34 -30 -22 -27 -29 -18 -15 -15
-13 -13 -13 -13 -14 -13 -13 -14 -13 -14 -15 -14 -14 -14 -16 -23 -28 -31 -29 -26 -25 -25 -21 -27 -29 -28 -32
-12 -12 -13 -13 -12 -12 -13 -13 -13 -14 -15 -14 -14 -14 -15 -21 -30 -29 -23 -23 -21 -28 -28 -28 -28 -35 -34
Wind_Speed
7 8 9 10 11 12 13 13 15 16 16 15 15 19 21 21 22 23 23 23 23 23 23 23 23 23 22
7 9 11 12 13 15 15 17 19 19 15 17 18 22 22 22 22 23 24 24 24 24 23 24 23 23 22
8 9 10 12 12 13 15 16 18 19 18 17 22 23 22 23 24 23 24 25 26 24 24 24 24 24 22
11 13 14 15 17 18 16 17 20 20 21 22 25 25 25 23 22 24 26 28 29 28 26 24 23 23 23
14 15 16 18 20 21 22 22 22 22 24 25 27 28 30 31 29 30 28 26 27 28 28 27 27 25 24
17 18 19 20 22 23 25 28 29 25 32 26 29 29 30 29 34 36 32 27 26 25 24 33 31 28 26
19 19 20 20 22 23 23 25 27 27 33 35 29 34 32 31 32 34 33 29 18 22 31 30 31 31 30
23 22 22 22 22 23 24 28 29 28 29 38 33 34 35 32 33 34 35 33 39 33 28 27 28 30 30
25 25 25 24 22 24 25 28 31 32 31 29 34 39 37 36 33 35 36 38 39 41 36 29 28 29 28
25 26 25 25 24 24 26 27 27 30 20 30 34 36 42 43 39 40 41 40 38 41 39 33 21 25 27
27 27 27 26 26 25 26 27 28 30 29 27 33 34 34 42 46 44 43 43 43 41 38 28 20 32 31
27 28 29 28 27 27 28 30 30 30 27 27 32 29 30 37 43 46 44 43 43 41 37 38 39 28 22
29 31 31 31 32 30 28 25 27 28 28 29 26 26 28 31 41 45 48 43 42 37 44 41 36 32 29
32 34 34 31 30 27 27 25 29 33 29 28 29 29 32 34 38 46 42 43 44 40 39 41 33 30 30
30 29 27 26 28 25 25 28 32 34 36 33 31 33 36 38 40 40 40 40 36 34 39 44 39 35 32
23 24 25 27 27 28 28 30 33 37 41 35 36 38 41 43 35 33 33 36 36 35 37 43 47 41 34
25 29 33 34 33 34 35 35 39 42 42 39 37 37 40 43 42 31 29 31 37 41 41 41 43 42 37
Wind_Direction
2 3 358 6 7 6 9 5 359 357 356 356 356 354 351 347 344 340 337 332 326 322 320 321 314 299 279
341 343 343 346 349 349 353 355 352 356 1 357 352 350 352 347 342 338 335 333 332 326 322 318 318 315 291
319 325 330 327 329 336 337 339 342 344 346 343 344 344 345 344 340 339 337 335 333 329 323 319 317 314 304
312 319 322 322 324 320 316 325 329 330 329 330 331 332 338 344 338 334 334 331 329 328 326 321 315 312 308
302 307 311 313 317 322 321 319 323 322 318 324 324 327 330 336 334 331 332 331 327 326 327 325 318 311 302
297 303 308 312 314 318 320 321 324 326 315 317 320 318 322 326 325 326 331 333 324 320 334 328 322 319 312
289 294 298 303 308 310 313 315 316 320 316 311 316 313 314 317 317 317 319 324 325 316 316 319 318 316 313
287 290 292 297 300 303 308 308 308 311 311 309 312 304 307 312 315 315 315 315 317 317 320 316 313 312 310
281 283 284 288 293 297 301 303 306 308 312 312 312 308 302 300 303 306 310 312 313 315 317 324 315 310 307
271 274 279 284 287 291 296 298 302 307 299 307 307 316 313 300 301 300 303 307 310 313 319 327 317 311 304
271 273 277 280 285 289 290 292 295 293 301 302 305 307 304 304 299 301 305 305 308 311 317 321 304 318 305
275 279 282 286 289 288 288 290 291 292 297 303 300 299 297 299 298 302 302 307 309 312 315 315 314 312 291
281 285 288 292 293 291 292 290 289 289 294 298 296 294 295 300 298 297 305 304 307 311 310 309 312 315 310
277 283 289 290 288 290 290 291 292 293 296 298 298 297 296 297 301 296 300 301 305 308 307 305 309 309 309
278 281 283 286 289 291 291 293 291 293 298 299 299 299 299 299 299 297 302 299 303 309 304 299 302 306 304
277 280 284 286 288 289 289 290 286 287 295 294 294 296 298 298 299 303 298 301 302 299 300 300 301 304 304
276 278 279 280 279 277 281 282 280 285 287 289 291 293 298 299 304 306 298 296 300 299 304 305 304 305 308
Height
1569 1568 1568 1567 1566 1564 1563 1561 1559 1557 1555 1553 1550 1548 1545 1542 1540 1537 1534 1532 1529 1526 1524 1522 1519 1517 1516
1568 1567 1565 1564 1562 1561 1559 1558 1556 1555 1553 1551 1549 1546 1543 1540 1537 1534 1531 1527 1524 1521 1518 1516 1513 1512 1510
1565 1564 1563 1561 1560 1558 1557 1556 1554 1552 1551 1550 1547 1544 1542 1539 1535 1531 1528 1525 1522 1518 1515 1512 1510 1507 1506
1562 1561 1559 1558 1557 1555 1554 1552 1550 1548 1547 1545 1543 1541 1539 1536 1532 1529 1526 1522 1518 1515 1512 1509 1506 1503 1502
1559 1558 1556 1555 1553 1551 1550 1549 1547 1545 1543 1542 1539 1535 1532 1530 1527 1525 1523 1520 1516 1513 1509 1506 1503 1499 1497
1556 1555 1555 1553 1551 1549 1547 1544 1542 1541 1534 1537 1534 1532 1529 1528 1523 1519 1517 1515 1512 1509 1505 1502 1499 1496 1492
1552 1551 1549 1548 1546 1545 1544 1542 1539 1538 1531 1526 1531 1525 1525 1524 1519 1516 1513 1509 1507 1505 1501 1496 1493 1489 1486
1546 1546 1544 1544 1543 1540 1539 1536 1535 1534 1531 1522 1523 1519 1517 1516 1514 1512 1509 1506 1502 1500 1497 1492 1488 1483 1481
1540 1539 1539 1538 1538 1535 1534 1531 1527 1526 1526 1522 1516 1511 1512 1509 1507 1504 1501 1498 1496 1492 1490 1487 1482 1477 1473
1533 1533 1533 1533 1533 1532 1528 1526 1525 1520 1520 1519 1514 1510 1501 1498 1498 1495 1492 1490 1487 1485 1483 1481 1477 1471 1467
1524 1524 1525 1525 1525 1525 1524 1522 1520 1517 1517 1514 1510 1508 1504 1492 1486 1488 1485 1481 1479 1477 1477 1474 1473 1470 1461
1516 1515 1516 1517 1517 1515 1514 1514 1513 1512 1512 1510 1506 1503 1497 1490 1480 1477 1478 1476 1472 1469 1468 1465 1462 1463 1460
1508 1508 1508 1508 1507 1507 1505 1504 1505 1504 1502 1503 1501 1498 1494 1489 1481 1471 1467 1466 1464 1464 1462 1457 1451 1450 1449
1500 1500 1500 1499 1498 1499 1499 1496 1494 1494 1495 1494 1493 1493 1489 1484 1477 1467 1467 1462 1455 1453 1453 1450 1444 1444 1445
1492 1492 1491 1492 1492 1491 1489 1488 1487 1485 1485 1485 1485 1484 1482 1476 1467 1464 1459 1455 1448 1445 1449 1441 1436 1435 1436
1485 1484 1485 1485 1484 1484 1482 1480 1478 1476 1475 1477 1475 1474 1469 1464 1465 1455 1452 1448 1442 1442 1443 1433 1423 1426 1427
1478 1478 1478 1478 1477 1476 1474 1473 1470 1467 1464 1468 1467 1466 1460 1450 1449 1451 1445 1440 1438 1435 1432 1427 1418 1414 1414